Tracking 23731 objects as of 27-Sep-2021
HD Live streaming from Space Station
objects crossing your sky now

STARLINK-2031

Track STARLINK-2031 now!
10-day predictions
STARLINK-2031 is classified as:


NORAD ID: 47648
Int'l Code: 2021-012AE
Perigee: 552.8 km
Apogee: 555.9 km
Inclination: 53.1 °
Period: 95.6 minutes
Semi major axis: 6925 km
RCS: Unknown
Launch date: February 16, 2021
Source: United States (US)
Launch site: AIR FORCE EASTERN TEST RANGE (AFETR)
aabbcc
Your satellite tracking list
Your tracking list is empty




NASA's NSSDC Master Catalog

Two Line Element Set (TLE):
1 47648U 21012AE  21269.40060352  .00000137  00000-0  28140-4 0  9995
2 47648  53.0552 147.8148 0002230  75.6324 284.4912 15.06407474 35307
Source of the keplerian elements: AFSPC